GEFSCGP_850_meantemp_018.txt.gz
Temperature
20 19 19 19 19 20 20 19 19 19 20 20 19 18 18 19 18 18 18 18 19 20 22 22 22 23 23 23 22 22 22 22 21 21 20 20 19 19 19 18 18 18 18 17
18 19 20 20 20 19 19 19 18 19 19 19 18 17 17 17 16 16 16 16 17 18 20 22 22 23 23 23 23 23 22 22 22 21 21 20 20 19 19 18 18 18 17 17
20 20 20 20 19 18 19 18 18 18 18 18 17 17 16 16 16 16 15 15 16 16 18 20 22 23 23 23 24 23 23 22 22 21 21 20 20 19 19 18 18 18 18 17
19 19 19 18 18 18 17 18 18 18 17 16 17 15 16 14 14 15 15 15 15 15 17 19 21 22 22 23 23 23 22 22 22 21 20 20 20 20 19 19 18 18 17 17
18 18 17 17 17 18 17 17 16 16 16 15 15 15 14 13 14 14 14 14 14 14 16 17 19 20 21 21 21 21 21 21 21 20 20 19 19 19 19 18 18 17 17 17
17 18 17 17 17 17 17 16 15 13 14 15 15 14 14 14 14 14 14 14 14 14 15 16 17 18 19 19 20 19 19 19 19 18 18 19 19 19 18 18 17 17 17 17
15 16 16 16 15 15 14 14 13 14 13 14 15 14 14 14 14 13 13 13 13 13 14 15 16 16 17 17 17 18 18 17 17 17 17 18 18 18 18 17 17 17 17 17
14 14 15 15 14 14 13 14 13 13 13 13 14 14 13 14 14 13 13 13 13 13 13 14 15 15 16 16 16 16 16 16 16 16 17 17 17 17 17 17 17 17 16 16
14 14 15 15 14 14 12 12 12 12 13 13 13 14 14 13 13 13 13 13 12 13 13 14 14 15 15 14 14 15 15 15 15 16 17 17 17 17 17 17 17 17 16 16
14 13 14 14 14 13 12 11 10 11 12 13 14 13 12 11 12 12 12 12 12 13 13 14 14 14 14 14 14 14 14 15 15 16 17 17 17 17 17 17 17 16 16 16
13 12 12 12 12 11 11 11 10 10 11 12 13 12 12 11 11 11 12 12 12 12 13 14 14 14 14 14 14 14 15 15 16 16 17 17 17 17 17 17 17 17 16 16
12 10 10 11 12 11 11 10 10 10 11 11 12 11 11 11 11 11 11 11 12 12 13 14 14 14 14 14 15 15 15 16 16 17 17 17 17 17 17 17 17 17 16 16
12 10 9 10 11 10 10 10 11 11 11 11 11 11 12 11 11 11 11 11 11 12 13 14 14 15 15 15 16 16 16 16 16 17 17 17 17 17 17 17 17 17 17 16
12 9 10 10 10 10 10 11 12 11 11 11 11 11 11 10 10 10 10 11 11 12 12 13 14 14 15 15 16 17 17 17 17 17 17 17 17 17 17 17 17 17 17 16
10 9 9 10 11 11 11 10 11 11 11 11 11 10 10 9 9 10 10 10 11 11 12 12 13 13 14 15 16 16 17 17 17 17 17 17 17 17 17 17 17 17 17 16
9 10 10 10 11 11 10 10 10 10 10 10 11 10 9 9 9 10 10 10 11 11 12 13 13 13 14 14 15 15 16 16 16 16 16 16 16 16 16 16 16 16 16 16
9 9 9 9 10 11 9 9 9 9 9 9 9 9 9 9 9 9 10 10 11 12 12 13 13 13 13 13 14 14 14 15 15 15 15 15 15 16 16 16 16 16 16 16
9 7 7 8 10 9 9 10 9 10 9 9 9 9 9 9 10 11 11 11 12 12 13 13 13 13 13 13 13 13 13 13 13 14 14 14 14 14 14 15 15 15 15 15
7 8 7 7 8 9 9 10 9 9 10 9 9 9 9 9 11 12 12 12 12 13 13 13 13 13 13 13 13 13 13 12 12 12 13 13 13 13 13 13 13 13 13 13
8 7 7 7 9 9 9 10 10 9 10 10 9 9 9 9 9 10 12 13 14 14 14 14 13 13 13 13 13 13 12 12 12 12 12 12 12 12 12 12 12 12 12 12
8 6 7 7 8 8 9 10 10 9 9 9 9 9 9 8 9 11 12 13 14 14 14 14 14 14 14 14 13 13 13 12 12 12 11 11 11 11 11 11 11 11 11 11
8 7 7 6 8 8 10 10 9 9 10 10 10 10 10 10 11 12 13 14 15 15 14 14 14 14 14 14 14 13 13 12 12 12 11 11 11 11 11 11 11 11 11 11
7 7 6 7 8 10 11 11 11 10 10 10 10 10 11 11 12 13 14 14 15 15 15 15 15 15 15 14 14 14 13 13 12 12 12 11 11 11 11 11 11 11 11 11
7 8 7 7 8 10 11 11 11 10 10 10 11 11 11 11 12 13 14 14 15 15 15 15 15 15 15 15 15 14 14 13 13 12 12 11 11 11 11 11 11 11 11 11
8 7 7 7 8 10 11 11 11 11 11 11 11 11 11 11 12 13 13 14 15 15 15 15 15 16 16 15 15 15 14 14 13 12 12 11 11 11 11 11 11 10 10 10
7 7 7 8 10 10 11 12 11 11 11 11 11 11 11 11 12 12 13 14 14 15 15 15 16 16 16 16 16 15 15 14 13 13 12 12 11 11 11 11 11 10 10 10

GEFSCGP_850_meantemp_024.txt.gz
Temperature
24 25 24 24 24 24 24 24 24 25 24 24 24 23 23 21 21 21 20 20 20 20 19 19 19 20 20 21 21 21 21 20 20 19 19 19 18 18 18 18 17 17 17 17
25 24 23 24 24 24 24 23 24 24 23 23 24 23 22 21 20 19 19 19 19 19 19 19 19 19 20 20 21 21 21 20 20 20 20 19 19 18 18 18 18 18 17 17
24 23 23 23 23 23 23 22 22 22 23 23 23 23 22 21 20 19 19 18 18 17 17 17 18 18 19 19 20 21 21 21 20 20 20 20 19 19 18 18 18 18 18 17
22 22 22 22 21 21 22 21 21 21 22 23 23 22 23 21 21 20 18 18 17 17 16 16 16 17 17 18 19 20 20 20 20 19 20 20 19 18 18 18 18 17 17 17
21 21 21 20 20 20 20 20 21 21 21 22 22 22 23 20 19 19 18 17 17 16 16 16 16 16 16 17 18 19 19 19 19 19 19 19 18 18 17 17 17 17 17 17
21 20 20 20 20 20 20 20 21 21 21 20 22 22 20 18 17 17 17 17 16 16 16 15 15 15 15 16 17 18 18 18 18 18 18 18 17 17 17 16 17 17 17 17
21 20 20 19 19 20 19 19 19 20 20 20 21 20 16 16 16 16 16 16 16 15 15 15 14 14 15 15 16 16 17 17 17 17 17 16 16 16 16 16 16 17 17 17
20 19 18 18 18 17 18 18 17 17 18 19 19 18 15 16 16 16 15 15 15 15 15 14 14 14 14 14 15 15 15 15 15 15 15 15 15 15 15 15 16 16 16 16
19 18 18 18 17 17 17 17 17 16 17 17 18 16 15 16 16 15 15 14 14 14 14 14 14 13 14 14 14 14 14 14 14 14 14 14 14 15 15 15 15 16 16 16
19 18 18 17 17 17 15 15 15 15 15 16 16 15 13 13 13 14 13 13 13 13 13 13 13 13 13 13 13 13 13 13 13 13 13 14 14 14 14 15 15 15 16 16
19 19 18 17 15 14 13 14 14 14 15 14 14 12 12 11 12 12 12 11 11 12 12 13 13 13 13 13 13 13 13 13 13 13 13 14 14 14 14 14 15 15 16 16
17 18 18 16 15 15 13 13 13 13 13 14 13 12 12 11 11 11 11 10 11 11 12 12 12 12 13 13 13 13 13 13 13 13 14 14 14 14 14 15 15 15 16 16
17 18 18 17 16 15 14 14 14 14 13 12 12 12 12 11 11 10 10 10 10 11 11 11 12 12 12 13 13 13 13 13 13 14 14 14 14 14 14 15 15 15 16 15
17 17 16 15 14 13 13 14 14 14 12 12 12 12 11 11 10 10 10 10 11 11 11 11 11 11 12 12 13 13 13 13 14 14 14 14 14 14 15 15 15 16 15 15
18 17 16 15 14 14 14 13 14 13 12 12 11 11 10 10 10 10 10 11 11 11 12 11 11 11 12 12 12 12 13 13 13 13 14 14 14 15 15 15 15 15 15 15
17 16 16 15 15 15 14 14 13 12 12 12 12 11 10 10 10 11 11 12 12 12 12 12 12 12 12 12 12 12 12 12 13 13 13 14 14 14 15 15 15 15 15 15
16 17 16 16 15 15 15 14 13 12 12 11 11 10 10 11 11 11 12 12 12 12 12 12 12 12 12 12 12 12 12 12 12 12 13 13 13 13 13 14 14 14 14 15
16 16 16 16 16 15 14 14 13 12 12 12 11 12 11 12 12 12 12 12 13 13 13 13 13 13 13 12 12 12 12 12 12 11 12 12 12 12 12 13 13 13 13 13
16 16 16 16 16 15 14 14 13 13 14 13 12 13 12 13 14 15 13 13 13 13 13 13 13 13 13 13 13 13 12 12 11 11 11 11 11 11 12 12 12 12 12 12
15 16 16 16 17 16 15 15 13 14 15 14 13 13 13 15 17 15 13 13 13 13 13 13 14 14 14 13 13 13 13 12 11 11 11 11 11 11 11 11 11 12 12 12
16 16 16 17 17 17 15 13 13 15 15 14 13 13 13 14 14 13 13 13 13 14 14 14 14 14 14 13 13 13 13 12 11 11 11 11 11 11 11 11 11 11 11 11
17 17 16 16 17 16 14 14 15 15 14 13 13 13 12 12 12 13 13 13 13 14 14 14 14 14 14 14 13 13 13 12 12 11 11 11 11 11 11 11 11 11 11 11
16 16 17 16 16 14 13 14 13 12 13 13 13 12 12 12 12 13 13 13 13 13 14 14 15 15 14 14 14 14 13 13 12 11 11 11 11 11 11 11 11 11 11 11
16 14 15 15 15 14 13 13 12 12 12 12 12 12 12 12 12 13 13 13 13 14 14 14 15 15 15 15 14 14 14 13 12 12 11 11 11 11 11 11 10 10 10 10
16 14 15 16 16 14 13 13 12 12 12 12 12 12 12 12 12 12 13 13 13 14 14 14 15 15 15 15 15 15 14 13 13 12 12 11 11 11 10 10 10 10 10 10
15 15 16 17 16 16 15 13 12 12 12 12 12 12 12 12 12 12 12 13 13 14 14 14 15 15 15 15 15 15 15 14 13 13 12 11 11 11 10 10 10 10 10 9

GEFSCGP_850_meantemp_030.txt.gz
Temperature
28 28 26 26 27 26 26 26 26 26 26 26 25 24 24 24 25 25 24 24 24 23 22 21 21 21 21 21 22 22 23 22 22 21 21 20 20 19 19 19 19 19 19 19
28 26 26 27 27 26 26 25 25 26 26 26 25 25 25 24 24 23 23 23 22 21 21 20 20 20 20 20 20 21 21 22 22 21 21 20 20 19 19 19 18 18 18 18
26 25 26 26 26 25 24 24 23 23 24 24 24 24 24 24 23 22 22 21 21 20 20 19 19 19 18 18 19 19 20 21 21 21 21 20 19 19 19 19 18 18 18 18
26 25 25 25 24 23 22 23 23 23 22 22 23 22 23 22 20 20 19 20 20 19 19 18 18 18 17 17 17 18 19 20 20 21 21 20 19 19 19 19 18 18 18 18
23 24 23 22 22 23 22 23 23 22 22 22 22 22 21 19 17 17 17 18 18 18 18 17 17 16 16 16 16 17 18 18 19 20 20 20 19 19 19 18 18 18 18 17
24 24 23 22 23 23 23 23 23 23 22 20 21 21 18 16 16 16 16 16 17 16 16 16 16 15 15 15 16 16 17 17 18 19 19 19 19 18 18 18 18 17 17 17
24 23 22 22 21 21 21 20 20 20 20 19 20 18 15 15 16 16 16 15 15 15 15 15 14 14 14 14 15 15 16 16 17 17 18 18 18 17 17 17 17 17 17 17
24 22 21 21 20 19 20 20 18 17 18 18 18 15 13 14 15 15 14 14 13 13 13 13 13 13 13 14 14 14 15 15 15 16 16 16 16 16 16 15 15 16 16 16
23 22 22 21 21 19 18 18 19 18 18 18 16 14 14 14 14 13 13 12 12 12 12 12 13 13 13 13 13 13 14 14 14 14 15 15 15 15 14 14 14 14 14 14
23 22 21 21 21 20 19 18 18 17 16 15 15 13 12 12 12 12 12 11 11 11 12 12 12 12 12 13 13 13 13 13 13 14 14 14 14 14 14 14 14 14 14 14
22 22 21 20 18 17 17 17 17 17 16 14 13 12 11 11 11 11 11 10 10 11 11 11 12 12 12 12 13 13 13 13 13 13 13 13 13 13 13 13 13 14 14 14
22 21 21 19 19 19 18 17 17 15 15 14 13 11 11 11 10 10 10 10 10 11 11 11 12 12 12 12 12 12 13 13 13 13 13 13 13 13 13 14 14 14 14 15
19 21 20 18 19 19 18 17 17 16 15 14 12 11 12 11 10 10 10 11 11 11 12 12 12 12 12 12 12 12 12 13 13 13 13 13 13 13 14 14 14 14 15 15
18 21 19 17 17 17 17 17 17 16 14 13 12 11 11 11 11 11 11 12 12 12 13 13 13 13 13 13 12 12 12 13 13 13 13 13 13 13 14 14 14 14 15 15
21 21 20 19 18 18 18 17 16 15 14 13 12 12 12 12 12 12 13 13 13 13 14 14 14 14 14 13 13 13 13 13 13 13 13 13 13 13 14 14 14 14 15 15
21 21 20 19 19 19 18 17 17 16 15 14 13 13 13 13 13 14 14 14 14 14 14 15 15 15 14 14 14 13 13 12 12 12 12 12 13 13 13 13 14 14 14 14
21 21 20 20 20 19 18 17 17 16 16 15 14 14 14 14 15 15 15 15 15 15 15 15 15 15 15 14 14 13 13 12 12 12 12 12 12 12 12 12 13 13 13 13
21 21 21 21 21 18 17 18 17 16 16 16 16 16 15 15 15 15 15 15 15 15 15 15 15 15 15 15 15 14 13 12 12 12 12 12 12 12 12 12 12 12 12 12
21 20 20 21 20 18 18 18 18 17 17 17 17 17 17 17 16 16 16 16 15 15 15 15 15 15 15 15 15 14 13 13 12 12 12 11 11 11 12 12 12 12 11 11
20 20 20 20 20 19 18 19 18 18 17 17 17 17 17 17 16 16 16 16 15 15 15 15 15 15 15 15 15 14 14 13 12 12 12 12 12 12 12 12 11 11 11 11
21 20 20 20 21 19 19 18 18 17 17 18 17 17 17 17 16 16 16 16 15 15 15 15 15 15 15 15 15 15 14 13 12 12 12 12 12 12 12 12 11 11 11 11
22 21 21 21 20 18 18 18 18 18 18 18 17 17 16 16 16 16 16 16 16 15 15 15 15 15 15 15 15 15 14 13 13 13 12 12 12 12 11 11 11 11 10 10
21 21 20 20 18 18 18 18 18 18 18 17 17 16 16 16 16 16 16 16 15 15 15 15 15 15 15 15 15 15 14 14 13 13 13 12 12 11 11 11 11 11 10 10
23 21 20 20 19 18 18 17 16 17 17 16 16 16 16 16 16 16 16 16 15 15 15 15 15 15 15 15 15 15 14 14 14 14 13 13 12 11 11 11 11 11 11 10
22 20 20 20 20 18 17 17 16 16 16 16 16 15 15 15 16 16 16 15 15 15 15 15 15 15 15 16 15 15 15 14 15 14 13 13 12 12 11 11 11 11 10 10
22 21 20 20 20 19 18 17 17 16 16 16 16 16 15 15 15 15 15 15 15 15 15 15 15 15 15 15 15 15 15 14 14 14 13 13 12 12 11 11 11 11 10 10

GEFSCGP_850_meantemp_036.txt.gz
Temperature
23 20 19 20 21 21 21 20 20 20 21 20 18 17 16 16 16 15 15 15 15 15 16 17 17 18 18 18 19 19 19 19 20 20 20 20 20 20 19 19 19 19 19 19
20 19 21 21 21 20 19 19 18 19 20 20 17 16 16 16 15 14 14 14 14 14 15 16 16 17 17 18 18 18 18 19 19 19 19 19 20 20 20 19 19 19 19 19
19 20 21 20 19 19 19 18 18 18 18 18 17 15 14 15 14 14 13 13 13 13 13 15 15 16 16 17 17 17 17 18 19 19 19 19 19 19 19 19 19 19 18 18
19 19 20 18 18 18 17 18 19 19 17 16 17 14 13 13 13 13 12 12 12 12 13 14 14 15 15 15 16 16 17 17 18 18 19 19 19 19 19 19 19 19 18 18
19 18 18 18 18 18 18 18 17 18 17 15 15 14 12 12 12 12 12 11 11 12 12 13 13 14 14 15 15 15 16 16 16 17 18 18 18 19 19 19 18 18 18 18
19 19 19 18 18 18 17 16 16 14 13 13 13 13 12 11 11 11 12 11 11 11 12 12 13 13 14 14 14 14 15 15 16 16 16 17 18 18 18 18 18 18 17 17
18 18 19 19 17 16 14 13 13 13 12 13 13 12 11 12 12 11 11 11 11 11 11 12 12 13 13 13 13 13 14 14 15 15 16 16 16 17 17 17 17 17 17 17
17 16 17 17 17 16 15 13 12 13 13 12 12 12 11 12 12 11 11 11 11 11 11 11 12 12 12 13 13 13 13 13 14 14 15 15 15 16 16 16 16 16 16 16
16 16 18 17 17 16 15 13 14 12 13 12 12 12 12 12 12 11 11 11 10 11 11 11 12 12 12 12 12 13 13 13 13 14 14 14 14 15 15 15 15 15 15 15
16 16 17 17 16 15 15 14 11 12 12 12 12 11 11 11 11 11 11 10 10 11 11 11 11 12 12 12 12 12 13 13 13 13 13 13 13 14 14 14 14 14 14 14
16 15 15 15 15 14 14 13 12 11 11 11 11 11 11 10 10 10 10 10 11 11 11 11 12 12 12 12 12 12 12 13 13 13 13 13 13 13 13 13 13 13 13 13
15 12 13 15 16 16 14 13 12 11 11 11 11 11 11 10 10 10 10 11 12 12 12 12 12 12 12 12 12 12 12 12 12 13 13 13 13 13 13 13 13 13 13 13
15 13 13 14 14 14 14 14 13 11 10 10 11 11 12 11 11 11 11 12 13 13 13 13 13 13 12 12 12 12 12 12 12 12 13 13 13 13 13 13 13 13 13 13
15 13 13 14 14 14 14 14 13 11 10 10 11 11 11 11 11 12 13 13 13 13 13 13 13 13 13 12 12 12 12 12 12 12 12 13 13 13 13 13 13 13 13 13
14 14 15 15 16 15 15 14 13 12 11 10 11 11 11 11 11 12 13 14 14 14 14 14 14 13 13 13 12 12 12 12 12 12 12 12 12 12 13 13 13 13 13 13
14 15 15 16 16 15 14 14 13 13 12 11 11 12 12 13 13 13 14 14 14 14 14 14 14 14 13 13 12 12 12 12 12 12 12 12 12 12 12 12 12 12 13 13
14 14 14 14 16 15 14 14 14 13 13 12 12 12 13 13 13 14 14 14 15 15 15 15 14 14 14 13 13 12 12 12 12 12 12 12 12 12 12 12 12 12 12 12
15 14 12 13 15 15 14 15 15 14 14 13 13 13 14 14 15 15 15 15 15 15 15 15 15 14 14 14 13 13 12 12 12 12 12 12 12 12 12 12 11 11 11 11
14 14 13 12 14 14 14 15 15 14 14 14 14 14 15 15 14 15 15 15 15 15 15 15 15 14 14 14 13 13 13 12 12 12 12 12 12 12 12 11 11 11 11 11
14 12 13 13 14 14 14 15 16 15 14 15 15 15 15 14 12 13 15 15 15 15 15 15 15 15 14 14 14 13 13 12 12 12 12 11 11 11 11 11 11 10 10 10
15 14 14 14 14 14 15 16 16 13 13 16 16 15 15 15 13 15 15 15 15 15 15 15 15 15 15 14 14 14 13 13 12 12 12 11 11 11 11 11 11 10 10 10
14 14 13 13 14 14 16 15 14 14 16 16 16 16 16 16 15 15 15 15 15 15 15 15 15 15 15 14 14 14 13 13 12 12 12 12 11 11 11 11 11 10 10 11
13 14 12 13 13 15 17 17 17 17 16 16 16 16 16 16 15 15 15 15 15 15 15 15 15 15 15 15 14 14 14 13 13 12 12 12 11 11 11 11 11 11 11 11
15 15 13 13 14 16 17 17 17 17 17 16 16 16 16 16 15 15 15 15 15 15 15 15 15 15 15 15 14 14 14 13 13 13 12 12 11 11 11 11 11 11 11 10
15 15 13 13 14 15 16 17 17 17 17 16 16 16 16 15 15 15 15 15 15 15 15 15 15 15 15 15 14 14 14 14 13 13 12 12 11 11 11 11 11 10 10 10
15 14 14 14 15 15 16 17 17 17 16 16 16 16 15 15 15 15 15 15 15 15 15 15 15 15 15 15 14 14 14 13 13 13 12 12 11 11 11 11 10 10 10 9

GEFSCGP_850_meantemp_042.txt.gz
Temperature
20 18 17 17 18 19 19 19 18 17 16 15 14 13 13 13 13 13 12 12 12 12 13 13 14 14 15 15 16 16 16 17 17 18 18 18 19 19 19 19 19 18 18 18
17 17 18 18 18 17 18 17 17 16 16 15 13 13 13 13 13 12 12 11 11 12 13 13 14 14 14 15 15 16 16 16 16 17 17 18 18 18 19 19 18 18 18 18
17 17 18 17 16 17 17 17 17 16 15 14 13 13 12 12 12 12 12 11 11 11 11 12 13 13 13 14 14 15 15 15 16 16 16 17 17 18 18 18 19 18 18 18
17 17 17 16 16 16 16 16 16 16 14 13 13 13 12 11 11 12 12 11 11 11 11 12 12 12 13 13 14 14 14 14 15 15 16 16 16 16 17 18 18 18 18 18
17 17 16 16 16 16 15 15 15 15 13 12 11 12 11 10 11 11 11 11 11 11 11 11 11 12 12 13 13 13 13 14 14 14 15 15 15 16 16 17 17 17 18 18
16 17 16 16 16 15 14 14 13 11 11 11 11 11 11 10 10 11 11 11 11 11 11 11 11 11 12 12 12 13 13 13 13 14 14 15 15 15 15 16 17 17 17 17
16 15 15 16 14 14 12 12 13 13 11 11 12 11 11 11 11 11 11 11 11 11 11 11 11 11 12 12 12 12 13 13 13 13 14 14 14 15 15 15 16 16 16 16
15 14 15 15 14 14 13 12 12 13 12 11 11 11 11 12 12 11 11 11 11 11 11 11 11 11 11 12 12 12 12 12 13 13 13 13 14 14 14 15 15 15 15 15
14 14 16 15 14 14 13 11 11 10 11 11 11 11 12 12 11 11 11 11 11 11 11 11 11 11 11 11 12 12 12 12 12 13 13 13 13 13 14 14 14 14 14 15
14 14 15 15 15 13 12 11 10 10 11 11 11 11 10 10 10 10 10 10 11 12 12 12 11 11 11 11 11 12 12 12 12 12 13 13 13 13 13 14 14 14 14 14
14 13 14 14 13 13 12 11 9 9 9 10 10 10 11 10 10 10 10 11 11 12 12 12 12 12 12 11 11 11 11 12 12 12 12 13 13 13 13 13 13 13 13 13
12 11 12 14 14 14 13 11 10 10 9 9 9 10 11 10 11 11 11 12 12 12 12 12 12 12 12 11 11 11 11 12 12 12 12 12 13 13 13 13 13 13 13 13
13 12 12 13 13 13 12 12 10 9 8 9 10 11 11 11 12 12 12 13 13 13 13 13 12 12 12 12 11 11 11 11 12 12 12 12 12 12 12 13 13 13 13 13
13 11 12 14 13 13 13 12 11 10 9 10 10 11 11 11 11 12 13 13 13 13 13 13 13 12 12 12 11 11 11 11 11 11 12 12 12 12 12 12 12 12 13 13
12 12 13 13 14 14 13 12 11 11 10 10 11 11 11 11 11 12 13 13 14 14 13 13 13 13 12 12 11 11 11 11 11 11 12 11 12 12 12 12 12 12 12 12
12 13 14 14 14 14 13 13 12 11 11 11 11 11 11 12 13 13 14 14 14 14 14 13 13 13 13 12 12 11 11 11 11 11 11 11 11 11 11 11 11 12 12 12
11 12 12 12 13 13 13 13 12 12 11 11 11 11 12 12 13 14 14 14 14 14 14 14 13 13 13 12 12 12 11 11 11 11 11 11 11 11 11 11 11 11 11 11
11 11 10 11 13 14 13 13 13 12 12 11 11 11 13 13 14 14 14 14 14 14 14 14 14 13 13 13 12 12 12 11 11 11 11 11 11 10 10 11 11 11 11 11
11 11 10 10 12 12 13 13 12 12 13 12 12 13 14 14 14 14 15 14 14 14 14 14 14 14 13 13 12 12 12 12 11 11 11 11 10 10 10 10 10 10 10 10
11 10 10 11 14 14 15 13 14 13 13 14 14 14 14 13 11 12 15 14 14 14 14 14 14 14 14 13 13 12 12 12 11 11 11 11 11 10 10 10 10 10 10 10
13 11 11 11 13 12 14 14 14 12 13 15 15 15 14 14 13 15 15 15 14 14 14 14 14 14 14 13 13 13 12 12 12 11 11 11 11 10 10 10 10 10 10 10
12 12 11 10 12 13 13 13 13 13 16 16 16 16 15 15 15 15 15 15 15 14 14 14 14 14 14 13 13 13 13 12 12 11 11 11 11 10 10 10 10 10 10 10
11 12 10 11 13 15 15 16 17 17 17 17 16 16 16 15 15 15 15 15 15 15 15 15 14 14 14 14 13 13 13 12 12 11 11 11 10 10 10 10 10 10 10 10
11 11 10 10 11 14 16 16 17 17 17 17 17 16 16 16 15 15 15 15 15 15 15 15 15 14 14 14 13 13 13 12 12 11 11 11 10 10 10 10 10 10 9 9
13 10 11 12 12 14 16 17 17 17 17 17 17 16 16 16 15 15 15 15 15 15 15 15 15 14 14 14 14 13 13 12 12 11 11 11 10 10 10 10 10 9 9 9
12 11 12 14 16 15 18 18 17 17 17 17 17 16 16 16 16 16 15 15 15 15 15 15 15 15 14 14 14 13 13 13 12 12 11 11 11 10 10 10 10 9 9 9

GEFSCGP_850_meantemp_048.txt.gz
Temperature
24 25 24 23 24 24 24 24 23 20 19 19 18 17 17 16 16 16 16 16 15 15 14 14 14 13 13 14 14 14 14 15 15 16 16 17 17 17 17 17 17 18 17 17
25 23 22 22 23 23 24 23 22 20 19 19 18 17 17 17 16 15 15 15 15 14 14 14 13 13 13 13 13 13 14 14 14 15 15 16 16 16 17 17 17 17 17 17
24 22 21 22 23 23 22 22 21 20 19 19 18 17 18 17 17 16 15 15 14 14 13 13 13 12 12 12 13 13 13 13 14 14 14 15 15 16 16 16 17 17 17 17
22 21 21 22 21 21 21 20 20 19 20 19 19 19 17 17 17 16 15 15 14 13 13 13 12 12 12 12 12 12 12 13 13 13 14 14 15 15 15 15 16 16 16 17
21 21 21 21 20 20 20 19 19 20 20 20 19 20 18 17 16 16 15 14 14 13 13 12 12 12 11 11 12 12 12 12 13 13 13 14 14 14 15 15 15 16 16 16
21 20 20 20 19 19 19 19 19 20 20 20 18 19 17 16 15 15 15 14 14 13 13 12 12 11 11 11 12 12 12 12 13 13 13 13 14 14 14 15 15 15 15 16
21 20 20 19 20 20 20 21 21 21 20 19 18 17 16 16 16 15 15 14 14 13 13 12 12 11 11 11 11 12 12 12 12 12 13 13 13 13 14 14 14 15 15 15
22 21 19 19 19 19 19 20 21 21 21 19 17 17 16 16 15 15 14 14 14 13 13 12 12 11 11 11 11 11 12 12 12 12 12 13 13 13 13 14 14 14 15 15
23 20 19 18 18 19 20 19 19 20 19 19 18 17 17 16 16 15 15 14 14 13 13 12 12 12 11 11 11 11 11 11 12 12 12 12 12 13 13 13 14 14 14 14
22 20 19 18 19 18 18 18 19 19 19 19 18 17 16 16 16 16 15 14 14 13 13 13 12 11 11 11 11 11 11 11 11 12 12 12 12 13 13 13 13 13 14 14
21 21 19 19 19 18 18 18 18 18 18 18 17 17 16 16 15 15 15 14 14 13 13 13 12 12 12 12 11 11 11 11 11 11 12 12 12 12 12 13 13 13 13 13
20 22 21 19 18 17 18 17 18 18 18 17 17 17 16 16 15 15 15 14 14 14 13 13 12 12 12 12 11 11 11 11 11 11 11 12 12 12 12 12 12 13 13 13
20 21 21 20 18 18 17 16 17 18 18 18 17 17 17 16 16 15 15 15 14 14 14 13 13 12 12 12 11 11 11 11 11 11 11 11 11 12 12 12 12 12 12 12
19 21 21 21 20 19 18 17 16 17 19 18 17 17 17 17 16 16 15 15 15 14 14 14 13 13 12 12 12 11 11 11 11 11 11 11 11 11 11 11 11 12 12 12
21 21 20 19 18 18 18 17 17 17 18 18 18 17 17 17 16 16 15 15 15 15 14 14 13 13 13 12 12 12 11 11 11 11 11 10 10 11 11 11 11 11 11 11
21 20 20 19 18 18 18 18 17 17 17 17 17 17 18 17 16 16 16 15 15 15 14 14 14 13 13 12 12 12 11 11 11 11 10 10 10 10 11 11 11 11 11 11
21 21 20 21 18 18 20 20 18 18 18 18 17 18 17 17 16 16 16 15 15 15 14 14 14 13 13 13 12 12 11 11 11 11 10 10 10 10 10 10 11 11 11 11
21 20 20 20 19 20 21 20 19 18 18 18 18 18 17 17 16 16 15 15 15 15 14 14 14 13 13 13 12 12 11 11 11 10 10 10 10 10 10 10 10 10 10 10
20 20 20 20 21 21 20 19 18 18 19 19 18 18 17 16 16 17 16 15 15 14 14 14 14 13 13 13 12 12 12 11 11 11 10 10 10 10 10 10 10 10 10 10
18 20 20 20 20 22 22 20 18 19 19 20 18 18 17 17 18 18 16 15 15 14 14 14 14 13 13 13 12 12 12 12 11 11 10 10 10 10 10 10 10 10 10 9
19 19 20 20 20 22 21 18 18 19 22 20 18 18 17 18 19 17 15 15 14 14 14 14 14 13 13 13 13 13 12 12 11 11 11 10 10 10 10 10 10 9 9 9
22 21 20 20 21 22 18 18 19 21 20 19 18 18 17 17 17 16 15 15 14 14 14 14 14 13 13 13 13 13 12 12 11 11 11 10 10 10 10 10 9 9 9 9
21 22 22 21 23 21 17 19 19 19 19 19 18 18 17 17 16 16 15 15 15 14 14 14 14 14 13 13 13 13 12 12 11 11 11 10 10 10 10 10 9 9 9 9
22 19 20 21 22 20 17 18 17 18 19 18 18 17 17 17 16 16 15 15 15 15 15 15 14 14 13 13 13 13 12 12 11 11 10 10 10 10 10 10 9 9 9 9
22 19 20 21 22 19 17 17 17 17 17 17 17 17 17 17 16 16 16 15 15 15 15 15 14 14 14 13 13 13 12 12 11 11 11 10 10 10 10 10 10 9 9 9
21 20 21 23 23 23 22 20 18 17 17 17 17 17 17 16 16 16 16 16 15 15 15 15 15 14 14 14 13 13 13 12 12 12 11 11 10 10 10 9 9 9 9 9

GEFSCGP_850_meantemp_054.txt.gz
Temperature
28 28 27 26 27 27 27 27 26 25 24 24 22 21 20 20 19 19 19 19 18 17 17 16 16 15 15 14 14 14 14 14 15 15 15 15 16 16 16 17 17 17 17 18
28 27 26 27 27 27 27 26 26 25 24 24 22 21 21 20 19 19 18 18 17 17 16 16 15 15 14 14 14 14 14 14 14 14 14 14 15 15 16 16 16 17 17 17
27 26 26 27 27 26 26 25 24 24 24 23 23 21 20 20 20 19 18 18 17 16 15 15 14 14 14 13 13 13 13 13 13 14 14 14 14 14 15 15 16 16 16 17
26 26 26 26 26 24 24 24 24 23 23 23 23 21 20 20 19 19 18 17 16 16 15 14 14 14 13 13 13 12 13 13 13 13 13 14 14 14 14 15 15 16 16 16
25 25 25 25 24 23 24 24 23 23 23 23 23 22 19 20 19 18 18 17 16 15 15 14 14 13 13 13 12 12 12 13 13 13 13 13 13 14 14 14 15 15 15 16
25 25 24 24 24 24 23 24 24 24 23 22 23 22 19 19 18 18 18 17 16 15 15 14 14 13 13 12 12 12 12 12 12 13 13 13 13 13 14 14 14 15 15 15
24 25 24 24 24 24 24 23 23 22 21 22 23 22 19 19 19 18 17 17 16 15 15 14 14 13 13 12 12 12 12 12 12 13 13 13 13 13 13 13 14 14 15 15
26 24 24 23 23 22 24 23 22 21 22 22 22 21 19 19 19 18 17 17 16 16 15 14 14 13 13 13 12 12 12 12 12 12 12 12 13 13 13 13 14 14 14 14
27 23 23 23 23 23 23 23 23 22 23 23 22 20 19 19 19 18 18 17 16 16 15 15 14 14 13 13 13 12 12 12 12 12 12 12 12 12 13 13 13 13 14 14
26 24 23 23 22 23 23 22 23 22 21 21 22 21 19 19 18 18 18 17 16 16 15 15 14 14 13 13 13 13 12 12 12 12 12 12 12 12 13 13 13 13 13 14
26 25 23 23 23 22 23 23 23 22 22 20 19 19 20 18 18 18 18 17 16 16 15 15 14 14 14 13 13 13 12 12 12 12 12 12 12 12 12 12 12 13 13 13
25 24 25 23 22 22 22 21 21 20 21 22 20 19 20 19 18 18 18 17 17 16 16 15 15 14 14 13 13 13 12 12 12 12 11 11 12 12 12 12 12 12 12 13
24 24 24 22 21 21 22 21 21 21 21 22 20 19 20 20 19 18 18 17 17 16 16 15 15 14 14 14 13 13 12 12 12 12 11 11 11 11 11 11 12 12 12 12
21 24 24 22 22 23 22 22 21 21 21 22 21 20 20 20 19 18 18 17 17 17 16 16 15 15 14 14 13 13 13 12 12 12 11 11 11 11 11 11 11 12 12 12
23 24 24 24 23 23 22 22 22 21 21 21 21 21 21 20 19 19 18 18 17 17 17 16 16 15 15 14 14 13 13 12 12 12 11 11 11 11 11 11 11 11 11 11
24 24 24 24 24 23 23 23 22 22 21 21 21 21 21 20 19 19 19 18 18 17 17 16 16 15 15 15 14 13 13 13 12 12 11 11 11 11 11 11 11 11 11 11
25 24 24 24 24 23 23 24 23 23 22 22 21 22 21 20 19 19 19 18 18 17 17 16 16 15 15 15 14 14 13 13 12 12 11 11 11 11 11 11 11 10 10 11
25 24 24 24 24 23 24 25 24 23 23 23 22 22 21 20 19 19 18 18 18 17 17 16 16 16 15 15 14 14 14 13 12 12 11 11 11 11 10 10 10 10 10 10
24 23 23 24 24 25 23 24 23 22 22 23 22 22 21 20 19 19 19 18 18 17 16 16 16 16 15 15 15 14 14 13 12 12 11 11 11 11 10 10 10 10 10 10
23 23 22 23 23 24 24 24 23 23 22 24 23 22 21 20 19 19 19 18 17 17 16 16 16 16 15 15 14 14 14 13 12 11 11 11 11 11 10 10 9 9 10 10
22 22 22 22 23 25 23 23 23 21 23 24 23 22 21 20 20 19 19 18 17 16 16 16 16 15 15 15 14 14 14 13 12 11 11 11 11 10 10 10 10 10 10 10
25 25 24 24 23 23 22 22 23 24 24 23 23 22 21 21 20 19 18 18 17 17 16 16 16 15 15 15 14 14 13 13 12 11 11 11 11 11 10 10 10 10 10 10
25 26 25 25 24 23 22 23 24 24 24 23 23 22 21 21 20 19 18 18 17 17 16 16 16 15 15 15 14 14 13 13 12 12 12 11 11 11 11 10 10 10 10 10
27 26 25 25 25 26 24 23 23 23 23 23 23 22 21 20 20 19 18 18 17 17 17 16 16 16 16 15 14 14 13 13 12 12 12 12 11 11 11 11 10 10 10 10
26 25 25 25 25 26 25 24 23 23 22 22 22 22 21 20 20 19 19 18 18 17 17 16 16 16 16 15 15 14 14 13 13 13 13 12 12 11 11 11 10 10 10 10
26 26 25 24 26 26 25 24 23 22 22 22 21 21 21 20 20 19 19 18 18 18 17 17 16 16 16 16 15 15 14 13 13 14 13 13 12 12 11 11 11 11 10 10

GEFSCGP_850_meantemp_060.txt.gz
Temperature
24 21 21 23 23 23 22 21 20 20 20 18 16 16 16 17 17 16 16 16 16 15 15 15 15 14 14 14 14 13 13 13 13 14 14 14 14 15 15 15 15 16 16 16
21 22 24 24 23 21 21 19 19 20 21 18 16 16 16 17 17 16 16 16 16 15 15 15 14 14 14 13 13 13 13 13 13 13 13 13 14 14 14 15 15 15 15 16
22 23 24 22 21 21 20 20 20 20 20 18 16 16 16 16 16 16 16 16 15 15 15 14 14 14 14 13 13 13 13 13 13 13 13 13 14 14 14 14 15 15 15 15
22 23 22 21 21 21 20 21 21 20 18 17 17 15 15 15 15 15 15 15 15 15 15 14 14 14 13 13 13 13 12 12 12 13 13 13 13 13 13 14 14 14 15 15
21 21 21 21 21 21 20 21 21 20 19 17 17 15 14 15 15 15 15 15 15 15 15 14 14 14 13 13 13 12 12 12 12 12 12 12 13 13 13 13 14 14 14 15
21 22 21 21 21 21 21 19 18 16 15 16 17 15 14 13 15 15 15 15 15 15 15 14 14 14 13 13 13 12 12 12 12 12 12 12 12 12 13 13 13 14 14 14
21 21 21 22 20 20 19 16 15 16 15 16 17 16 14 15 15 15 15 15 15 15 15 14 14 14 13 13 13 12 12 12 12 12 12 12 12 12 12 12 13 13 13 14
19 19 20 21 20 19 19 16 16 16 16 15 16 16 14 16 16 16 16 16 15 15 15 14 14 14 13 13 13 12 12 12 12 12 12 12 12 12 12 12 12 13 13 13
18 18 20 21 21 20 19 17 16 15 16 16 15 15 15 16 15 16 16 16 15 15 15 15 14 14 13 13 13 12 12 12 12 11 12 12 12 12 12 12 12 12 13 13
18 18 20 21 20 20 19 18 15 15 16 15 16 16 14 14 14 15 15 16 16 15 15 15 14 14 13 13 13 12 12 12 11 11 11 11 11 12 12 12 12 12 12 13
19 18 19 19 19 19 19 18 15 13 14 15 15 14 15 14 14 14 15 16 16 16 15 15 14 14 14 13 13 12 12 12 12 11 11 11 11 11 11 12 12 12 12 12
18 15 16 18 19 19 19 18 15 15 15 14 13 14 16 15 15 16 16 16 16 16 15 15 15 14 14 13 13 13 12 12 12 11 11 11 11 11 11 11 11 12 12 12
18 16 16 18 17 18 19 19 17 14 13 14 14 15 15 15 16 16 16 16 16 16 16 15 15 14 14 14 13 13 12 12 12 11 11 11 11 11 11 11 11 11 11 12
18 16 17 18 17 18 18 18 18 15 14 14 15 16 16 15 14 16 16 17 16 16 16 15 15 15 14 14 13 13 13 12 12 12 11 11 11 11 11 11 11 11 11 11
16 18 19 18 19 19 19 19 18 17 15 15 16 16 16 15 15 16 17 17 16 16 16 15 15 15 14 14 14 13 13 12 12 12 11 11 11 11 11 11 11 11 11 11
17 19 19 19 20 20 20 19 18 17 17 16 17 17 16 17 17 17 17 17 17 16 16 16 15 15 15 14 14 13 13 12 12 12 11 11 11 11 10 10 10 10 10 10
17 18 18 17 19 20 19 19 18 18 18 17 17 16 16 15 16 17 17 17 17 16 16 16 15 15 15 14 14 13 13 12 12 12 11 11 11 10 10 10 10 10 10 10
17 16 15 16 18 20 19 20 20 19 19 18 18 17 16 17 18 18 18 18 17 17 16 16 15 15 15 14 14 13 13 13 12 12 11 11 11 10 10 10 10 10 10 10
16 17 15 15 17 18 20 21 21 20 19 19 18 17 18 19 18 17 18 18 17 17 16 16 15 15 15 14 14 14 13 13 12 12 11 11 10 10 10 10 10 10 10 10
16 14 15 16 18 19 19 21 21 20 19 20 19 18 18 17 14 15 19 18 17 17 16 16 16 15 15 14 14 14 13 13 12 11 11 11 11 10 10 10 10 10 10 10
17 16 15 16 17 17 19 21 21 19 19 21 21 20 19 17 17 20 19 18 18 17 17 16 16 15 15 15 14 14 13 13 12 11 11 11 11 10 10 10 10 10 10 10
16 15 15 14 17 18 20 20 18 19 22 22 22 22 21 21 20 19 19 18 18 17 17 16 16 15 15 15 14 14 13 13 12 12 11 11 11 11 11 10 10 10 10 10
16 16 15 15 17 20 22 22 23 23 22 22 22 22 21 21 20 19 19 18 18 17 17 16 16 16 15 15 15 14 14 13 13 12 12 11 11 11 11 11 10 10 10 10
17 17 17 18 19 21 22 22 23 23 22 22 22 22 21 21 20 19 19 18 18 17 17 17 16 16 16 15 15 15 14 14 13 12 12 12 12 11 11 11 11 11 10 10
15 16 17 18 18 20 22 22 22 23 22 22 22 22 21 21 20 20 19 19 18 18 17 17 17 16 16 16 15 15 14 14 13 13 13 12 12 12 11 11 11 11 11 11
12 12 14 15 16 16 19 19 20 21 21 21 21 21 21 21 21 20 20 19 19 18 18 17 17 17 17 16 16 15 15 14 14 13 13 13 12 12 12 11 11 11 11 11

GEFSCGP_850_meantemp_066.txt.gz
Temperature
22 20 20 21 21 21 20 19 19 18 18 17 16 15 15 15 15 15 15 15 15 15 15 14 14 14 14 13 13 13 13 13 13 13 13 13 13 14 14 14 14 14 15 15
20 20 21 20 20 19 19 19 18 18 17 16 15 15 15 15 15 15 15 15 15 15 15 14 14 14 13 13 13 13 13 12 12 12 12 12 13 13 13 13 13 14 14 14
21 21 21 20 20 19 19 18 18 18 16 15 15 15 15 15 15 15 15 15 15 15 15 14 14 14 13 13 13 13 12 12 12 12 12 12 12 13 13 13 13 13 13 14
20 20 20 20 20 19 19 19 19 18 16 15 16 14 14 14 14 14 15 15 15 15 15 14 14 14 13 13 13 12 12 12 12 12 12 12 12 12 12 12 13 13 13 13
20 20 20 20 20 20 19 18 18 17 16 15 15 14 13 14 13 13 14 15 15 15 15 14 14 14 13 13 13 12 12 12 12 12 12 11 11 11 12 12 12 13 13 13
19 20 20 19 19 18 18 16 15 13 13 15 15 14 14 12 13 14 14 15 15 15 15 14 14 14 13 13 12 12 12 12 12 11 11 11 11 11 12 12 12 12 13 13
19 19 19 20 19 17 16 15 14 15 14 14 15 14 14 14 13 14 15 15 15 15 15 14 14 14 13 13 12 12 12 12 12 11 11 11 11 11 11 11 12 12 12 12
19 18 19 19 18 18 16 15 15 15 14 13 14 14 14 15 15 15 15 15 15 15 15 14 14 14 13 13 13 12 12 12 11 11 11 11 11 11 11 11 11 12 12 12
18 18 19 19 19 18 17 14 14 13 14 14 13 14 14 15 15 15 15 15 15 15 15 15 14 14 13 13 13 12 12 12 12 11 11 11 11 11 11 11 11 12 12 12
17 18 18 19 18 17 17 13 12 13 14 14 13 14 14 15 14 13 14 15 16 15 15 15 14 14 14 13 13 12 12 12 12 11 11 11 11 11 11 11 11 11 11 12
17 16 17 18 18 18 16 15 12 11 12 13 13 13 14 15 14 13 14 16 16 16 15 15 15 14 14 13 13 13 12 12 12 11 11 11 11 11 11 11 11 11 11 11
15 14 15 17 17 17 17 16 13 14 13 11 12 12 14 14 14 15 15 16 16 16 15 15 15 14 14 14 13 13 13 12 12 11 11 11 11 11 11 11 11 11 11 11
15 14 16 17 16 17 17 15 13 11 11 10 12 13 14 14 14 15 16 16 16 16 16 15 15 15 14 14 13 13 13 12 12 12 11 11 11 11 10 10 10 10 11 11
16 14 16 17 16 16 17 16 13 13 12 12 12 13 14 14 13 15 16 16 16 16 16 15 15 15 14 14 14 13 13 12 12 12 11 11 11 10 10 10 10 10 10 10
15 16 17 17 17 17 17 17 14 14 13 13 14 13 14 14 14 16 17 17 16 16 16 16 15 15 14 14 14 13 13 13 12 12 11 11 10 10 10 10 10 10 10 10
14 17 18 18 17 17 18 17 16 15 14 14 13 13 14 16 16 16 17 17 17 17 16 16 16 15 15 14 14 14 13 13 12 12 11 11 10 10 10 10 10 10 10 10
14 16 16 17 17 18 18 18 17 16 15 15 15 15 15 16 16 17 18 18 17 17 17 16 16 15 15 14 14 14 13 13 12 11 11 11 11 10 10 10 10 10 10 10
14 13 12 14 18 19 18 18 17 17 17 15 15 15 16 17 18 18 19 18 18 17 17 16 16 15 15 15 14 14 13 13 12 11 11 11 11 10 10 10 10 10 10 10
13 13 13 13 16 17 18 19 18 19 19 18 16 16 17 17 17 18 20 19 18 18 17 17 16 15 15 15 14 14 13 13 12 12 11 11 11 10 10 10 10 10 10 10
12 12 12 13 17 18 19 19 19 19 19 19 18 18 17 16 14 16 20 19 19 18 17 17 16 16 15 15 15 14 14 13 12 12 11 11 11 10 10 10 10 10 10 10
15 13 13 14 16 16 16 18 19 18 18 19 19 19 18 16 17 20 20 19 19 18 18 17 16 16 15 15 15 14 14 13 13 12 12 11 11 11 10 10 10 10 10 10
14 13 13 12 16 17 16 17 16 17 18 19 19 20 19 20 20 20 20 19 19 18 18 17 17 16 16 15 15 15 14 14 13 12 12 12 11 11 11 11 10 10 10 10
13 14 12 13 15 14 14 14 15 16 17 18 18 19 20 20 20 20 20 19 19 18 18 17 17 16 16 16 15 15 15 14 13 13 13 12 12 11 11 11 11 10 10 10
13 12 12 13 14 14 13 14 15 16 16 17 18 19 19 19 20 20 19 19 19 18 18 17 17 17 17 16 16 16 15 14 14 13 13 12 12 12 11 11 11 11 10 10
12 11 13 13 13 13 14 13 14 16 17 18 18 18 18 19 19 19 19 19 19 18 18 17 17 17 17 17 16 16 15 15 14 14 13 13 13 12 12 11 11 11 11 10
10 10 13 13 12 11 12 12 13 15 16 16 17 18 17 18 18 18 18 18 18 18 18 17 17 17 17 17 16 16 16 15 15 15 14 14 13 13 12 12 12 11 11 11

GEFSCGP_850_meantemp_072.txt.gz
Temperature
26 27 27 27 27 26 26 26 25 24 22 22 23 23 22 20 19 19 19 19 19 18 17 16 15 15 14 14 13 13 13 12 12 12 12 12 12 12 12 12 13 13 13 13
27 26 26 26 25 26 26 25 25 23 22 22 23 23 23 21 20 20 20 19 19 18 17 17 16 15 14 14 13 13 13 12 12 12 12 12 12 12 12 12 12 13 13 13
27 26 25 25 25 25 25 25 24 23 22 22 22 23 23 22 20 19 18 18 18 17 17 17 16 15 14 14 13 13 12 12 12 12 12 12 12 12 12 12 12 12 13 13
25 24 25 25 25 25 24 23 23 22 23 23 22 23 23 22 21 20 19 19 18 17 17 16 15 15 14 14 13 13 12 12 12 11 12 11 11 12 12 12 12 12 12 13
24 24 25 25 24 24 23 22 22 22 23 23 22 23 24 22 22 22 20 19 18 17 16 16 15 15 14 13 13 12 12 12 11 11 11 11 11 11 11 12 12 12 12 12
24 23 24 24 22 22 22 22 22 22 23 23 23 22 23 23 22 22 20 19 18 17 16 16 15 14 14 13 13 12 12 12 11 11 11 11 11 11 11 11 12 12 12 12
24 23 23 23 23 22 23 23 23 23 23 23 22 22 23 23 22 21 20 19 18 17 17 16 15 15 14 13 13 12 12 12 11 11 11 11 11 11 11 11 11 11 12 12
24 23 23 23 24 23 23 24 23 23 23 23 22 22 23 22 20 19 19 18 18 17 17 16 15 15 14 13 13 13 12 12 12 11 11 11 11 11 11 11 11 11 11 11
25 23 22 22 22 23 23 23 23 23 22 23 23 23 23 21 21 20 19 18 18 17 17 16 15 15 14 14 13 13 12 12 12 11 11 11 11 11 11 11 11 11 11 11
26 23 22 21 22 21 23 22 22 22 22 23 23 23 23 23 22 22 20 19 18 18 17 16 15 15 14 14 13 13 13 12 12 11 11 11 11 11 11 10 10 11 11 11
26 25 22 22 22 23 21 21 22 22 22 22 22 23 23 22 22 21 21 19 18 18 17 16 16 15 14 14 14 13 13 12 12 12 11 11 11 10 10 10 10 10 10 11
24 25 24 23 21 21 22 22 22 22 22 21 22 23 22 22 21 20 20 19 18 17 17 16 16 15 15 14 14 13 13 13 12 12 11 11 11 10 10 10 10 10 10 10
23 24 23 22 21 21 21 21 21 21 22 22 22 23 22 22 21 20 19 19 18 17 17 16 16 15 15 14 14 14 13 13 12 12 11 11 11 10 10 10 10 10 10 10
22 24 24 24 24 23 21 20 20 21 22 22 22 23 23 23 22 21 20 19 18 18 17 17 16 16 15 15 14 14 13 13 12 12 11 11 11 10 10 10 10 10 10 10
23 24 24 23 22 22 22 21 20 21 22 22 23 22 22 23 21 20 19 19 18 18 17 17 16 16 15 15 15 14 13 13 13 12 11 11 11 10 10 10 10 10 10 10
23 24 23 22 22 22 22 22 21 21 21 21 21 22 23 22 20 20 20 19 19 18 18 17 17 16 16 16 15 14 14 13 13 12 12 11 11 10 10 10 10 10 10 10
23 23 23 23 22 22 23 23 22 22 22 22 22 23 23 22 21 20 20 19 19 18 18 17 17 17 16 16 15 14 14 13 13 12 12 11 11 10 10 10 10 10 10 10
23 23 23 23 22 22 24 23 23 22 22 22 22 22 21 21 20 19 19 19 19 18 18 17 17 16 16 16 15 14 14 14 13 12 12 11 11 11 10 10 10 10 10 10
22 23 23 23 23 23 23 22 22 22 23 22 22 22 21 20 20 21 19 18 18 18 18 17 17 17 16 16 15 15 14 14 13 13 12 12 11 11 11 10 10 10 10 10
20 22 23 22 23 23 24 22 21 23 23 22 21 21 21 21 23 22 19 18 18 18 18 17 17 17 16 16 15 15 15 14 14 13 13 12 12 11 11 11 11 10 10 10
21 21 22 22 23 24 22 20 21 22 23 21 20 20 20 21 21 19 18 18 18 18 18 18 17 17 16 16 15 15 15 15 14 14 13 13 12 12 12 11 11 11 11 10
23 22 22 22 22 23 19 21 22 23 20 19 19 19 19 18 18 17 17 18 18 18 18 18 17 17 16 16 16 15 15 15 14 14 14 13 13 12 12 12 12 11 11 11
23 24 24 24 23 19 16 18 16 16 18 18 17 17 17 17 17 17 17 17 18 18 17 17 17 17 16 16 16 16 15 15 15 14 14 14 13 13 13 12 12 11 11 11
22 19 21 21 20 17 15 14 14 14 15 15 15 16 16 16 16 16 16 17 17 17 17 17 17 17 16 16 16 16 15 15 15 15 14 14 14 13 13 13 12 12 11 11
22 20 21 22 20 16 14 14 13 13 14 14 14 15 15 15 15 15 15 16 16 16 16 16 16 16 16 15 15 15 15 15 15 15 14 14 14 14 13 13 13 13 12 12
21 21 22 23 21 19 17 14 13 13 13 13 13 14 14 14 14 14 14 15 15 15 15 15 15 15 15 15 14 15 15 15 14 14 14 14 14 14 14 13 13 13 13 13

GEFSCGP_850_meantemp_078.txt.gz
Temperature
27 27 26 26 26 26 26 26 27 27 27 26 26 26 26 25 24 24 24 23 23 23 21 20 19 18 17 17 16 15 15 14 14 13 13 13 13 13 13 13 13 13 13 13
27 27 27 27 26 25 26 27 28 28 27 26 26 26 27 26 25 24 24 23 23 22 21 20 19 18 17 17 16 15 15 14 14 13 13 13 13 13 13 13 13 13 13 13
27 28 29 28 27 27 27 27 27 26 27 27 26 25 26 26 25 24 23 23 22 22 21 20 19 18 17 16 16 15 15 14 14 13 13 13 13 13 13 13 13 13 13 13
27 27 28 28 28 27 27 27 26 26 25 25 26 24 25 25 25 24 24 23 22 21 20 19 19 18 17 16 15 15 14 14 13 13 13 12 12 12 12 12 12 13 13 13
26 27 28 28 28 27 27 26 26 26 25 25 26 25 25 25 25 24 24 23 22 21 20 19 18 17 17 16 15 14 14 13 13 13 12 12 12 12 12 12 12 12 13 13
27 28 28 28 27 27 27 26 26 26 25 24 26 26 25 25 24 24 24 23 22 21 20 19 18 17 17 16 15 14 14 13 13 13 13 12 12 12 12 12 12 12 12 12
26 27 27 27 26 26 26 25 25 24 24 25 26 25 25 24 25 24 24 23 22 21 20 19 18 17 17 16 15 14 14 13 13 13 13 12 12 12 12 12 12 12 12 12
26 26 26 27 27 26 26 26 24 24 25 25 25 25 24 25 24 23 23 22 22 21 20 19 18 17 17 16 15 15 14 14 13 13 13 12 12 12 12 12 12 11 11 12
26 26 27 27 27 26 26 26 26 25 25 25 26 26 24 24 24 24 23 22 22 21 20 19 18 17 17 16 16 15 14 14 14 13 13 13 12 12 12 11 11 11 11 11
27 25 25 25 26 25 26 26 25 24 24 24 25 26 24 23 24 24 24 23 22 21 20 19 18 18 17 16 16 15 15 14 14 13 13 13 12 12 12 12 11 11 11 11
27 26 25 25 25 26 25 25 25 25 25 24 23 23 25 24 24 24 23 23 22 21 20 19 19 18 17 16 16 16 15 15 14 14 13 13 12 12 12 12 11 11 11 11
27 27 26 25 26 26 26 26 25 24 24 25 24 23 25 24 24 24 23 23 22 21 20 19 19 18 17 17 16 16 16 15 14 14 13 13 13 12 12 12 12 11 11 11
27 26 26 25 24 24 24 25 25 25 24 24 24 23 25 25 24 24 23 22 22 21 20 19 19 18 17 17 16 16 16 15 15 14 13 13 13 12 12 12 12 11 11 11
25 26 26 25 25 25 24 25 24 24 23 24 25 25 25 25 24 24 23 22 22 21 20 20 19 18 18 17 17 16 16 15 15 14 14 13 13 13 12 12 11 11 11 11
26 25 26 27 26 26 26 25 24 24 24 24 25 25 25 24 24 23 23 22 22 21 21 20 19 19 18 18 17 17 16 16 15 15 14 14 13 13 12 12 11 11 11 11
25 25 26 26 26 26 25 25 25 24 24 25 24 24 25 25 24 23 23 22 22 21 21 20 20 19 19 18 18 17 17 16 16 15 15 14 13 13 12 12 12 11 11 11
26 25 25 25 26 25 24 25 25 25 25 25 24 24 25 24 24 23 22 22 21 21 20 20 20 19 19 19 18 18 17 16 16 15 15 14 14 13 13 12 12 12 11 11
26 26 25 25 25 23 26 28 27 26 26 26 25 25 24 24 23 22 22 21 21 20 20 20 19 19 19 19 18 18 17 17 16 16 15 14 14 13 13 13 12 12 12 11
26 25 25 25 25 25 26 27 26 25 25 26 25 25 24 24 23 22 21 20 20 20 19 19 19 19 19 18 18 18 17 17 17 16 15 15 14 14 13 13 13 12 12 12
25 25 24 24 24 24 26 27 27 26 24 26 25 25 24 24 23 21 20 20 19 19 19 18 18 18 18 18 18 17 17 17 17 16 16 15 15 14 14 13 13 13 12 12
23 23 23 23 24 26 26 26 26 23 24 26 25 24 24 23 21 20 20 19 19 18 18 18 18 18 17 17 17 17 17 16 16 16 16 15 15 14 14 14 13 13 13 12
24 24 23 23 23 24 25 25 25 25 25 25 24 24 23 22 20 20 19 18 18 18 18 17 17 17 17 17 17 16 16 16 16 15 15 15 15 14 14 14 14 13 13 13
26 26 25 25 24 24 25 24 24 24 24 24 23 22 21 21 20 19 18 18 17 17 17 17 17 16 16 16 16 16 16 15 15 15 15 14 14 14 14 14 14 14 13 13
27 28 26 26 24 23 23 22 22 22 23 22 21 21 20 20 19 18 17 17 17 16 16 16 16 16 15 15 15 15 15 15 15 14 14 14 14 14 15 14 14 14 14 13
26 27 26 25 25 23 22 22 21 21 21 20 20 20 19 19 18 17 17 16 15 15 15 15 15 15 14 14 14 14 14 14 14 13 13 14 14 14 14 14 14 14 14 14
27 26 25 25 26 25 23 22 21 20 20 19 19 18 18 18 17 16 16 15 14 14 14 14 14 13 13 13 13 13 13 13 12 12 12 13 13 13 13 13 13 14 13 14

GEFSCGP_850_meantemp_084.txt.gz
Temperature
23 20 20 20 20 21 21 21 21 21 22 21 20 20 20 20 21 21 21 21 20 20 19 18 18 17 17 16 16 15 15 14 14 14 14 13 13 13 13 13 13 13 13 13
20 20 21 21 22 22 21 21 21 22 23 22 21 21 20 20 20 21 21 21 20 19 19 18 18 17 17 16 16 15 15 14 14 13 13 13 13 13 12 12 12 13 13 13
20 21 22 23 22 22 21 21 22 22 22 22 22 20 20 20 21 21 21 21 20 20 19 18 18 17 17 16 16 15 14 14 14 13 13 13 13 13 13 13 12 12 12 12
20 22 23 22 22 21 21 22 23 22 21 19 21 19 19 19 19 20 20 20 20 19 19 18 18 17 17 16 16 15 14 14 13 13 13 13 12 12 12 12 12 12 12 12
20 21 22 22 23 22 21 23 23 22 21 19 19 18 18 19 19 19 19 20 20 20 19 19 18 18 17 16 16 15 14 14 13 13 13 12 12 12 12 12 12 12 12 12
21 22 22 22 23 23 22 21 20 17 17 18 19 18 19 17 19 19 19 20 20 20 19 19 18 17 17 16 16 15 14 14 13 13 13 13 12 12 12 12 12 12 12 12
21 22 23 23 23 23 20 18 18 18 17 18 19 19 18 19 19 19 19 20 20 20 19 19 18 17 17 16 16 15 15 14 14 13 13 13 12 12 12 12 12 12 12 12
20 21 23 23 22 21 21 18 18 18 18 18 20 19 18 20 20 21 21 21 20 20 19 19 18 18 17 16 16 15 15 14 14 13 13 13 13 12 12 12 12 12 11 11
19 20 23 24 23 22 21 19 18 17 18 18 18 19 20 20 19 19 20 20 20 20 19 19 18 18 17 16 16 15 15 15 14 14 13 13 13 12 12 12 12 12 11 11
20 21 22 23 23 23 21 19 16 17 18 18 19 18 17 19 19 19 19 19 20 20 19 19 18 18 17 17 16 16 15 15 14 14 14 13 13 13 12 12 12 12 11 11
20 20 21 22 22 21 22 21 17 15 16 16 18 18 18 18 18 18 19 20 20 20 20 19 18 18 17 17 16 16 15 15 15 14 14 13 13 13 13 12 12 12 12 11
20 18 18 20 21 21 21 20 17 18 18 16 16 17 19 18 19 20 20 21 21 20 20 19 19 18 17 17 16 16 16 15 15 15 14 14 13 13 13 13 12 12 12 11
20 18 18 19 19 21 22 21 18 16 15 15 16 18 19 19 19 21 21 21 20 20 20 19 19 18 18 17 17 16 16 16 15 15 14 14 14 13 13 13 13 12 12 12
19 18 18 19 19 19 21 21 20 17 16 17 17 18 20 19 19 19 20 21 20 20 20 19 19 18 18 17 17 17 16 16 16 15 15 15 14 14 14 13 13 13 12 12
19 19 20 20 20 20 20 21 20 19 17 17 19 19 19 18 18 20 21 21 20 20 19 19 19 18 18 18 17 17 17 16 16 16 15 15 15 14 14 14 13 13 13 12
18 20 21 21 22 21 21 20 20 19 19 18 19 19 19 19 20 20 20 20 20 20 20 19 19 19 18 18 18 17 17 17 16 16 16 15 15 14 14 14 13 13 13 13
18 19 19 18 20 21 20 20 20 19 19 19 19 19 19 18 18 20 21 20 20 20 20 19 19 19 18 18 18 18 17 17 16 16 16 15 15 15 14 14 14 13 13 13
17 17 16 17 19 19 19 20 20 20 20 19 19 19 18 19 21 21 21 21 20 20 19 19 19 18 18 18 18 17 17 17 16 16 16 15 15 15 14 14 14 14 13 13
17 17 16 16 18 18 20 21 20 20 20 19 19 19 20 21 20 19 20 21 20 20 19 19 19 18 18 18 18 17 17 17 16 16 16 15 15 15 15 14 14 14 13 13
16 16 16 16 18 18 20 21 22 21 21 20 20 19 19 19 16 17 20 20 20 19 19 19 18 18 18 18 17 17 17 16 16 16 16 15 15 15 15 14 14 14 14 13
18 17 16 16 17 17 19 21 22 20 20 22 22 21 20 19 20 21 20 20 19 19 18 18 18 18 18 17 17 17 17 16 16 15 15 15 15 14 14 14 14 14 14 14
16 16 15 14 16 18 20 21 20 20 22 23 23 23 22 22 22 20 20 19 19 19 18 18 18 17 17 17 17 17 16 16 15 15 15 14 14 14 14 14 14 13 13 13
16 17 16 16 18 20 22 23 24 24 24 24 23 23 23 22 21 20 19 19 19 18 18 17 17 17 17 16 16 16 15 15 15 14 14 14 13 13 13 13 13 13 13 13
17 17 16 16 17 19 22 23 24 24 24 24 24 23 23 22 21 20 19 19 18 18 17 17 17 17 16 16 16 15 15 14 14 14 13 13 13 13 13 12 12 12 12 12
18 18 17 17 18 19 21 23 24 24 24 24 23 23 23 22 21 20 19 19 18 17 17 17 16 16 16 15 15 14 14 14 13 13 12 12 12 12 12 12 11 11 11 11
17 18 17 17 19 18 22 24 24 23 23 23 23 22 22 22 21 20 19 18 17 17 16 16 16 15 15 14 14 13 13 13 12 12 12 11 11 11 11 11 11 11 11 11

GEFSCGP_850_meantemp_090.txt.gz
Temperature
19 18 17 18 19 20 19 19 20 20 20 19 18 18 19 19 18 18 19 19 19 19 19 18 18 17 17 16 16 15 14 14 14 13 13 13 13 12 12 12 12 12 12 12
18 18 19 19 19 19 19 19 20 20 20 19 18 18 18 18 18 19 19 19 20 19 19 18 18 17 17 16 16 15 14 14 13 13 13 13 12 12 12 12 12 12 12 12
18 19 20 20 19 19 19 19 20 20 20 19 19 19 18 18 18 19 19 20 20 20 19 18 18 17 17 16 15 15 14 14 13 13 13 12 12 12 12 12 12 12 12 12
19 19 20 20 19 19 19 20 20 20 19 18 19 17 18 17 18 17 18 19 20 20 19 18 18 17 17 16 15 15 14 13 13 13 13 12 12 12 12 12 12 12 12 12
19 19 20 20 20 20 20 20 19 19 19 17 17 17 17 17 18 17 17 19 20 20 19 19 18 17 17 16 15 15 14 14 13 13 13 12 12 12 12 11 12 11 11 11
19 20 20 20 20 20 19 18 17 15 16 17 18 17 17 16 17 17 17 19 20 20 19 19 18 17 16 16 15 15 14 14 13 13 13 12 12 12 12 12 11 11 11 11
19 20 20 20 20 20 19 18 17 18 16 16 17 17 16 17 17 17 18 19 20 20 19 19 18 17 17 16 15 15 14 14 14 13 13 12 12 12 12 12 11 11 11 11
19 19 20 20 20 19 19 18 17 18 17 16 17 16 16 17 18 18 19 20 20 20 19 19 18 17 17 16 15 15 15 14 14 13 13 13 13 12 12 12 12 11 11 11
18 19 21 21 20 19 18 17 17 16 16 17 16 16 17 18 18 18 18 19 20 20 19 19 18 18 17 16 16 15 15 14 14 14 13 13 13 13 12 12 12 11 11 11
19 19 20 21 20 18 18 15 14 15 16 17 17 17 16 18 18 18 17 18 20 20 19 19 18 18 17 16 16 15 15 14 14 14 14 13 13 13 12 12 12 12 12 11
19 19 20 20 21 20 18 17 14 13 14 15 16 16 17 17 17 16 17 19 20 20 20 19 18 18 17 16 16 15 15 15 14 14 14 14 13 13 13 12 12 12 12 12
18 17 18 19 20 19 19 17 15 16 16 14 14 15 17 16 16 17 19 20 20 20 20 19 19 18 17 17 16 16 15 15 15 14 14 14 14 13 13 13 13 12 12 12
17 17 18 18 18 19 19 17 16 14 13 12 14 16 17 17 17 18 19 20 20 20 20 19 18 18 17 17 16 16 16 15 15 15 14 14 14 14 13 13 13 13 13 12
17 17 18 19 18 18 19 18 15 15 14 13 14 16 17 18 17 18 19 20 20 20 20 19 19 18 18 17 17 16 16 16 15 15 15 14 14 14 14 14 13 13 13 13
18 18 18 18 18 19 19 18 16 16 15 15 16 15 17 17 17 19 20 20 20 20 20 19 19 18 18 17 17 17 16 16 16 15 15 15 14 14 14 14 13 13 13 13
16 18 18 19 19 18 18 18 17 16 16 15 16 16 16 17 18 18 19 20 20 20 20 19 19 18 18 18 17 17 17 16 16 16 15 15 15 14 14 14 14 13 13 13
15 16 17 17 17 19 18 18 17 17 16 16 17 17 17 17 16 19 20 20 21 21 20 20 19 19 18 18 17 17 17 16 16 16 16 15 15 15 14 14 14 14 13 13
15 15 14 15 18 18 18 18 18 18 17 16 17 17 16 17 21 22 22 22 21 21 20 20 19 19 18 18 17 17 17 17 16 16 16 15 15 15 14 14 14 14 14 13
14 14 13 14 16 16 17 18 18 18 18 17 17 17 18 18 18 19 21 22 21 21 20 20 19 18 18 18 17 17 17 16 16 16 16 15 15 15 14 14 14 14 13 13
13 13 13 13 17 17 18 19 19 18 19 19 17 17 16 16 16 18 22 22 21 20 20 19 19 18 18 17 17 17 17 16 16 16 16 15 15 14 14 14 13 13 13 13
15 14 14 13 15 16 17 18 19 19 19 21 20 19 17 17 20 23 22 21 21 20 19 19 18 18 18 17 17 17 17 16 16 16 15 15 14 14 14 13 13 13 13 13
15 14 13 12 14 16 18 17 18 19 21 21 21 21 20 22 22 22 22 21 20 20 19 19 18 18 17 17 17 17 16 16 16 15 15 14 14 13 13 13 13 12 12 12
13 14 13 14 16 17 18 19 21 21 21 22 22 23 22 21 21 22 21 21 20 20 19 18 18 17 17 17 16 16 16 15 15 15 14 14 13 13 13 12 12 12 12 12
14 13 13 13 14 17 19 20 21 21 21 22 22 23 22 22 22 21 21 21 20 19 19 18 17 17 17 16 16 16 15 15 15 14 14 13 13 12 12 11 11 11 11 11
14 13 13 14 14 17 21 22 21 21 22 22 22 23 23 22 22 22 21 21 20 19 18 18 17 17 16 16 16 15 15 14 14 14 13 12 12 11 11 11 10 10 10 10
13 14 14 15 17 16 18 21 21 21 21 22 22 22 22 22 22 22 21 21 20 19 18 17 17 16 16 16 15 15 14 14 13 13 12 12 11 10 10 10 9 9 9 9

GEFSCGP_850_meantemp_096.txt.gz
Temperature
22 23 23 24 24 25 25 24 25 25 24 24 24 25 26 25 23 23 23 23 22 22 21 19 18 18 17 17 16 15 15 14 14 13 13 13 13 12 12 12 12 12 12 12
22 23 24 25 24 24 24 24 24 25 24 24 25 25 26 25 24 24 24 24 23 22 21 19 18 18 17 17 16 15 15 14 13 13 13 12 12 12 12 12 12 12 12 12
23 24 24 24 23 23 24 24 24 24 24 24 24 25 26 25 24 23 22 23 23 22 21 20 18 18 17 16 16 15 15 14 13 13 13 12 12 12 12 12 12 11 12 12
24 24 23 23 24 24 24 24 24 23 24 25 24 24 26 26 24 24 23 22 22 21 21 20 19 18 17 16 16 15 15 14 13 13 13 13 12 13 12 12 12 12 11 12
23 23 24 24 24 24 24 23 23 23 24 24 25 24 26 25 25 25 24 23 22 21 20 20 19 18 17 16 16 15 15 14 13 13 13 12 12 12 12 12 12 12 12 11
23 23 24 24 23 23 23 23 23 24 24 24 25 24 25 26 26 25 25 23 22 21 20 19 18 18 17 16 16 15 15 14 14 13 13 12 12 12 12 12 12 12 12 12
23 23 23 23 23 23 23 24 24 24 24 24 24 23 25 26 25 24 24 23 22 21 20 19 18 18 17 17 16 15 15 14 14 13 13 13 12 12 12 12 12 12 12 12
23 23 23 24 24 24 24 25 24 23 23 24 24 24 26 25 23 22 22 22 22 21 20 19 19 18 18 17 16 16 15 14 14 14 13 13 13 12 12 12 12 12 12 12
24 24 23 23 24 25 24 24 25 24 24 23 25 25 26 24 24 23 22 22 21 21 20 19 19 18 18 17 16 16 15 15 14 14 13 13 13 13 12 12 12 12 12 12
25 24 23 23 24 23 24 25 24 24 23 23 24 24 25 25 25 24 23 23 22 21 20 19 19 18 18 17 16 16 15 15 14 14 14 13 13 13 13 12 12 12 12 12
25 25 23 23 24 24 23 24 24 24 24 23 23 24 26 25 25 24 24 23 22 21 20 19 19 18 18 17 16 16 16 15 15 14 14 14 13 13 13 13 13 12 12 12
24 25 24 24 24 23 24 24 24 24 24 23 23 24 26 24 24 23 24 23 22 21 20 19 19 18 18 17 17 16 16 15 15 15 14 14 14 14 13 13 13 13 12 12
24 24 24 24 23 23 23 23 23 24 24 24 23 24 26 25 24 23 23 23 22 20 20 19 19 18 18 17 17 16 16 16 15 15 15 14 14 14 14 13 13 13 13 13
23 25 24 24 24 24 24 23 22 23 24 24 24 25 26 26 25 25 23 22 22 21 20 19 19 18 18 18 17 16 16 16 16 15 15 15 14 14 14 14 14 13 13 13
24 24 25 25 24 24 24 24 23 23 24 24 25 25 26 26 26 25 24 23 22 21 20 19 19 19 18 18 17 17 16 16 16 15 15 15 15 14 14 14 14 13 13 13
23 24 24 24 24 23 23 24 24 23 23 24 24 24 26 26 25 24 23 22 21 21 20 20 19 19 18 18 17 17 17 16 16 16 15 15 15 15 14 14 14 13 13 13
24 24 23 24 24 23 23 25 24 24 24 24 24 25 26 25 25 24 23 23 22 22 21 20 20 19 19 18 18 17 17 16 16 16 16 15 15 15 14 14 14 14 13 13
23 23 23 23 23 22 25 25 24 24 24 25 24 25 25 25 24 23 23 22 22 21 21 20 20 19 19 18 18 17 17 17 16 16 16 15 15 15 15 14 14 14 13 13
22 22 22 23 22 23 24 25 23 23 24 25 24 24 24 23 22 23 22 22 22 21 21 20 20 19 19 18 18 17 17 17 16 16 16 15 15 15 15 14 14 13 13 13
20 21 22 22 22 22 24 24 22 23 24 24 24 23 23 22 24 25 23 22 21 21 21 20 20 19 19 18 18 17 17 17 16 16 16 15 15 15 15 14 14 13 13 13
21 21 21 22 22 23 24 22 22 23 23 23 22 22 22 22 24 23 22 21 21 21 21 21 20 19 19 18 18 17 17 17 16 16 16 15 15 15 14 14 13 13 13 12
22 22 21 22 21 22 22 22 22 23 22 22 21 21 21 21 21 20 20 21 21 21 21 20 20 19 19 18 18 17 17 17 16 16 16 15 15 14 14 14 13 13 12 12
21 22 22 22 22 22 20 21 20 20 20 20 20 20 20 20 20 20 20 20 20 20 20 20 20 19 19 18 18 17 17 17 16 16 16 15 14 14 14 13 12 12 12 11
21 20 20 20 22 21 20 19 19 18 19 19 19 19 19 19 19 19 19 19 19 20 20 20 19 19 19 18 18 17 17 16 16 16 15 14 14 13 13 12 12 11 11 10
19 19 19 19 21 20 20 19 18 18 18 18 18 18 18 18 19 19 19 19 19 19 20 20 19 19 18 18 18 17 17 16 15 15 15 14 13 13 12 12 11 11 11 11
18 18 18 18 19 19 18 18 17 16 16 17 17 17 17 18 18 18 19 19 19 19 19 19 19 19 18 18 17 17 16 16 15 14 14 14 13 13 12 11 11 10 10 10

GEFSCGP_850_meantemp_102.txt.gz
Temperature
23 22 22 23 24 24 25 24 24 24 25 25 25 26 26 26 26 26 26 26 25 25 24 23 22 21 20 19 19 18 17 17 16 15 15 15 14 14 14 14 13 13 13 13
23 23 24 25 25 25 24 24 24 24 25 26 25 26 27 27 27 26 27 26 26 25 24 22 21 21 20 19 19 18 17 16 16 15 15 15 14 14 14 14 13 13 13 13
23 24 26 26 25 25 24 24 23 24 24 26 26 25 27 28 27 27 26 26 26 25 24 22 21 21 20 19 18 18 17 16 16 15 15 14 14 14 14 14 14 13 13 13
24 26 26 25 25 25 24 24 25 24 24 24 25 24 26 27 26 26 26 26 26 25 24 23 22 21 20 19 18 18 17 16 16 15 15 14 14 14 14 14 14 13 13 13
24 25 25 25 25 25 24 25 25 25 24 24 25 25 26 27 26 26 26 26 26 25 24 23 22 21 20 19 18 17 17 16 15 15 15 14 14 14 14 14 14 14 13 13
25 26 26 26 26 26 25 25 26 25 25 24 26 26 26 26 27 27 27 26 26 25 24 23 22 21 20 19 18 17 17 16 15 15 14 14 14 14 14 14 14 14 14 13
25 26 27 27 26 26 26 25 23 23 23 24 26 26 26 27 28 27 27 27 26 25 24 22 21 20 19 19 18 17 16 16 15 15 15 14 14 14 14 14 14 14 14 13
25 25 26 26 26 26 26 25 23 21 22 24 26 26 26 27 27 27 26 26 26 25 24 22 21 20 19 18 18 17 16 16 15 15 15 15 14 14 14 14 14 14 14 13
25 25 27 27 27 27 26 26 26 25 24 24 25 26 27 27 26 26 26 26 25 24 23 22 21 20 19 18 18 17 17 16 15 15 15 15 14 14 14 14 14 14 14 14
26 25 26 27 27 27 26 26 26 25 23 23 24 25 25 26 26 26 26 25 25 24 23 22 21 20 19 19 18 17 17 16 16 15 15 15 15 14 14 14 14 14 14 14
27 25 25 26 25 26 26 26 26 25 25 23 23 24 27 26 26 26 26 26 25 24 23 22 21 20 19 19 18 17 17 16 16 16 15 15 15 15 14 14 14 14 14 14
27 26 25 26 27 27 27 26 26 24 24 24 23 24 27 27 27 27 26 26 25 24 23 22 21 20 19 19 18 17 17 16 16 16 15 15 15 15 15 14 14 14 14 14
25 25 24 24 25 26 26 26 26 26 25 24 23 25 27 27 27 27 26 26 25 24 23 22 21 20 20 19 18 18 17 17 16 16 15 15 15 15 15 15 14 14 14 14
24 25 24 23 24 25 26 26 26 25 24 24 24 25 26 27 26 26 26 26 25 24 23 22 21 21 20 19 18 18 18 17 17 16 16 15 15 15 15 15 15 14 14 14
26 25 26 26 26 27 26 26 26 26 25 25 25 25 26 26 26 27 27 26 25 24 23 22 22 21 20 19 19 18 18 17 17 16 16 16 16 15 15 15 15 14 14 14
26 25 25 25 26 27 26 26 26 26 26 26 25 25 26 27 27 27 26 26 25 25 24 23 22 21 20 19 19 18 18 18 17 17 16 16 16 15 15 15 15 14 14 14
25 25 24 24 25 26 25 26 26 26 26 26 25 25 26 26 26 26 26 25 25 25 24 23 22 21 21 20 19 19 18 18 17 17 16 16 16 15 15 15 15 14 14 14
24 24 24 24 24 23 25 28 27 26 26 26 25 25 25 25 26 25 25 25 24 24 24 23 23 22 21 21 20 19 18 18 17 17 17 16 16 15 15 15 15 14 14 14
26 24 23 23 23 24 26 26 26 25 25 25 25 25 25 25 25 25 24 24 24 24 23 23 22 22 21 21 20 20 19 18 18 17 17 16 16 16 15 15 15 14 14 14
25 25 23 23 22 22 24 25 26 25 23 25 24 24 24 24 22 23 23 23 23 23 23 22 22 22 22 21 20 20 19 18 18 17 17 16 16 16 15 15 15 14 14 14
24 23 22 22 22 23 24 25 25 23 22 23 23 23 22 22 22 22 22 22 22 22 22 22 22 21 21 21 20 20 19 19 18 17 17 17 16 16 16 15 15 14 14 13
23 22 22 22 22 22 23 23 22 22 22 22 22 21 21 21 21 21 21 21 21 21 21 21 21 21 21 20 20 20 19 19 18 18 17 17 16 16 15 15 14 14 13 13
23 23 22 22 22 22 22 22 21 21 20 20 20 20 20 20 20 20 20 20 20 20 20 20 20 20 20 20 19 19 19 19 18 18 17 16 16 15 15 15 14 14 13 13
22 23 22 21 22 22 22 21 20 19 19 19 19 19 18 19 19 19 19 19 19 19 19 19 19 19 19 19 19 19 19 18 18 18 17 16 16 15 15 14 14 13 13 12
19 20 20 20 20 20 20 19 19 18 18 18 18 17 17 17 18 18 18 18 18 18 18 18 18 19 19 18 18 18 18 18 17 17 17 16 15 15 15 14 14 13 13 13
19 19 18 18 19 19 18 18 17 17 17 17 16 16 16 16 17 17 17 17 17 17 17 17 17 18 18 18 18 18 18 17 17 16 16 15 15 15 15 14 14 13 13 12